Flag for Canada Weather past 2 weeks in Sarnia, Ontario, Canada

Now
52 °F

Overcast.


Feels Like: 51 °F
Forecast: 44 / 49 °F
Wind: 3 mph from West

Location: Sarnia Airport

Current Time: Oct 20, 2014 at 8:35:48 PM

Latest Report: Oct 20, 2014 at 8:00 PM


Visibility: 9 mi

Pressure: 29.82 "Hg

Humidity: 88%

Dew point: 48 °F

Location of SarniaLocation

Historic Weather in Sarnia — Graph

°F

Sarnia temperature yesterday

Maximum temperature yesterday: 50 °F (at 3:00 PM)
Minimum temperature yesterday: 37 °F (at 9:00 AM)
Average temperature yesterday: 44 °F

Past Weeks' High & Low Weather Summary

 TemperatureHumidityPressure
High72 °F (Oct 14, 1:00 PM)100% (Oct 6, 11:00 PM)30.26 "Hg (Oct 6, 11:00 PM)
Low34 °F (Oct 12, 4:00 AM)36% (Oct 8, 6:00 PM)29.48 "Hg (Oct 17, 3:00 PM)
Average52 °F78%29.88 "Hg
* Reported Oct 5 7:00 PM — Oct 20 7:00 PM, Sarnia, Weather by CustomWeather, © 2014

Note: Actual official high and low records may vary slightly from our data, if they occured in-between our weather recording intervals... More about our weather records

Advertising

Sarnia weather history for previous 24 hours

 ConditionsComfort  
Time TempWeatherWind HumidityBarometerVisibility
7:00 PM
Oct 20
52 °FOvercast.3 mph94%29.81 "Hg7 mi
6:00 PM54 °FOvercast.3 mph82%29.80 "Hg9 mi
5:00 PM52 °FMostly cloudy.No wind88%29.79 "Hg9 mi
4:00 PM52 °FMostly cloudy.5 mph88%29.79 "Hg9 mi
3:59 PM52 °FMostly cloudy.6 mph88%29.79 "Hg9 mi
3:00 PM52 °FLight rain. Mostly cloudy.5 mph88%29.79 "Hg9 mi
2:00 PM54 °FMostly cloudy.8 mph77%29.79 "Hg9 mi
1:57 PM54 °FPartly sunny.6 mph77%29.79 "Hg9 mi
1:00 PM54 °FOvercast.8 mph77%29.80 "Hg9 mi
12:00 PM52 °FOvercast.10 mph82%29.83 "Hg9 mi
11:00 AM50 °FMore clouds than sun.9 mph88%29.84 "Hg9 mi
10:00 AM48 °FOvercast.7 mph94%29.85 "Hg9 mi
9:00 AM48 °FLight rain. Overcast.8 mph87%29.85 "Hg9 mi
8:00 AM46 °FLight rain. Fog.10 mph93%29.86 "Hg4 mi
7:00 AM46 °FLight rain. Overcast.9 mph93%29.87 "Hg7 mi
6:00 AM46 °FMostly cloudy.8 mph87%29.88 "Hg9 mi
5:00 AM48 °FRain. Mostly cloudy.8 mph76%29.89 "Hg9 mi
4:00 AM46 °FOvercast.9 mph76%29.90 "Hg9 mi
3:47 AM46 °FOvercast.8 mph76%29.90 "Hg9 mi
3:00 AM46 °FPartly cloudy.7 mph76%29.93 "Hg9 mi
2:00 AM46 °FOvercast.7 mph71%29.96 "Hg9 mi
1:00 AM46 °FOvercast.6 mph71%29.97 "Hg9 mi
11:00 PM
Oct 19
45 °FMostly cloudy.7 mph76%29.98 "Hg9 mi
10:00 PM45 °FMostly cloudy.6 mph76%30.00 "Hg9 mi
9:00 PM45 °FPassing clouds.7 mph71%30.02 "Hg9 mi
8:00 PM45 °FPassing clouds.6 mph71%30.04 "Hg9 mi
Weather by CustomWeather, © 2014

See weather overviewHow to use our weather pages